C/2024 G4 ( PanSTARRS )

Japanese version
Home page
Updated on August 11, 2025

---------------------------------------------------------------------

* Profile

Discovery Date April 10, 2024
Magnitude 21.1 mag
Discoverer Pan-STARRS 2 telescope (Haleakala)

* Pictures

* Orbital Elements

Epoch 2025 May 5.0 TT = JDT 2460800.5
T 2026 Mar. 21.63778 TT                                 Pike
q   4.9003405            (2000.0)            P               Q
z  +0.0003185      Peri.  131.42205     +0.30382438     +0.91999891
 +/-0.0000014      Node   152.98372     -0.95216907     +0.28431467
e   0.9984395      Incl.   33.02631     +0.03263146     -0.26975392
From 504 observations 2021 Jan. 12-2025 Aug. 5, mean residual 0".5.

* Magnitudes Graph

        m1 = 7.0 + 5 log d + 10.0 log r

---------------------------------------------------------------------

The orbital elements are published on M.P.E.C. 2025-P113.
The magnitudes graphs are made with Comet for Windows.

---------------------------------------------------------------------

Copyright(C) Seiichi Yoshida (comet@aerith.net). All rights reserved.